Location: Chisholm
(54.9102°N, 114.1701°W)
Time: 11:20:38
(UTC+00:00)

N. Korean satellite - Pass Details

Date: 08 December 2021
Orbit: 447 x 491 km, 97.3° (Epoch: 25 January)

Event Time Altitude Azimuth Distance (km) Brightness Sun altitude
Rises 01:02:01 0° 209° (SSW) 2,510 11.0 -14.8°
Reaches altitude 10° 01:04:47 10° 233° (SW) 1,628 10.4 -15.1°
Maximum altitude 01:06:52 15° 270° (W) 1,342 9.9 -15.4°
Drops below altitude 10° 01:08:58 10° 308° (NW) 1,621 9.7 -15.7°
Sets 01:11:43 0° 332° (NNW) 2,493 10.3 -16.1°
